Weather History for Pagosa Springs, CO

Change the Weather History Date:

Sunday, November 24, 2013

  Actual Average (KDRO) Record (KDRO)
Temperature  
Mean Temperature 28 °F 32 °F  
Max Temperature 32 °F 45 °F 64 °F (1981)
Min Temperature 23 °F 20 °F 5 °F (1979)
Degree Days  
Heating Degree Days 38 33  
Month to date heating degree days 682  
Since 1 July heating degree days 1470  
Cooling Degree Days 0 0  
Month to date cooling degree days 0  
Year to date cooling degree days 243  
Moisture  
Dew Point 27 °F    
Average Humidity 96    
Maximum Humidity 100    
Minimum Humidity 88    
Precipitation  
Precipitation 0.00 in 0.05 in 0.73 in (1980)
Month to date precipitation 1.41  
Year to date precipitation 14.63  
Sea Level Pressure  
Sea Level Pressure 30.12 in    
Wind  
Wind Speed 2 mph (SW)    
Max Wind Speed 7 mph    
Max Gust Speed -    
Visibility 4 miles    
Events Snow    
T = Trace of Precipitation, MM = Missing Value Source: NWS Daily Summary

Daily Weather History Graph

Daily Weather History Graph

Search for Another Location

Airport:

Trip Planner

Search our weather history database for the weather conditions in past years. The results will help you decide how hot, cold, wet, or windy it might be!

Date:

Astronomy

Nov. 24, 2013 Rise Set
Actual Time 6:57 AM MST 4:52 PM MST
Civil Twilight 6:28 AM MST 5:21 PM MST
Nautical Twilight 5:56 AM MST 5:53 PM MST
Astronomical Twilight 5:25 AM MST 6:24 PM MST
Moon 11:17 PM MST (11/24) 11:50 AM MST (11/24)
Length of Visible Light 10h 52m
Length of Day
9h 55m
Waning Gibbous, 60% of the Moon is Illuminated
Nov 24
Waning Gibbous
Nov 25
Last Quarter
Dec 2
New
Dec 9
First Quarter
Dec 17
Full

Hourly Weather History & Observations

Time (MST) Temp. Windchill Dew Point Humidity Pressure Visibility Wind Dir Wind Speed Gust Speed Precip Events Conditions
12:15 AM 32.9 °F 28.5 °F 32.2 °F 97% 30.24 in 2.5 mi SW 4.6 mph - N/A Snow Light Snow
12:35 AM 32.9 °F - 32.0 °F 96% 30.23 in 4.0 mi Calm Calm - N/A Snow Light Snow
12:55 AM 32.9 °F - 32.0 °F 96% 30.24 in 4.0 mi Calm Calm - N/A Snow Light Snow
1:15 AM 32.4 °F - 32.0 °F 99% 30.23 in 2.0 mi Calm Calm - N/A Snow Light Snow
1:35 AM 32.0 °F - 32.0 °F 100% 30.22 in 1.2 mi Calm Calm - N/A Snow Light Snow
1:55 AM 32.0 °F 28.7 °F 32.0 °F 100% 30.22 in 2.0 mi South 3.5 mph - N/A Snow Light Snow
2:15 AM 32.0 °F 27.5 °F 31.5 °F 98% 30.23 in 4.0 mi SSE 4.6 mph - N/A Snow Light Snow
2:35 AM 31.5 °F - 30.9 °F 98% 30.22 in 5.0 mi Calm Calm - N/A Snow Light Snow
2:55 AM 31.1 °F - 30.9 °F 99% 30.22 in 1.5 mi Calm Calm - N/A Snow Light Snow
3:15 AM 31.1 °F - 30.9 °F 99% 30.21 in 3.0 mi Calm Calm - N/A Snow Light Snow
3:35 AM 30.7 °F - 30.4 °F 99% 30.20 in 7.0 mi Calm Calm - N/A Snow Light Snow
3:55 AM 30.6 °F - 29.8 °F 97% 30.19 in 10.0 mi Calm Calm - N/A Snow Light Snow
4:15 AM 30.2 °F - 29.8 °F 99% 30.19 in 7.0 mi Calm Calm - N/A Snow Light Snow
4:35 AM 30.6 °F - 29.7 °F 96% 30.19 in 7.0 mi Calm Calm - N/A Snow Light Snow
4:55 AM 30.0 °F - 29.3 °F 97% 30.19 in 10.0 mi Calm Calm - N/A   Overcast
5:15 AM 30.6 °F - 29.3 °F 95% 30.18 in 5.0 mi Calm Calm - N/A Snow Light Snow
5:35 AM 30.0 °F - 29.3 °F 97% 30.17 in 4.0 mi Calm Calm - N/A   Overcast
5:55 AM 30.0 °F - 29.5 °F 98% 30.17 in 5.0 mi Calm Calm - N/A Snow Light Snow
6:15 AM 29.8 °F - 29.3 °F 98% 30.17 in 5.0 mi Calm Calm - N/A   Overcast
6:35 AM 29.3 °F - 28.8 °F 98% 30.16 in 4.0 mi Calm Calm - N/A Snow Light Snow
6:55 AM 29.1 °F - 28.2 °F 96% 30.16 in 10.0 mi Calm Calm - N/A   Overcast
7:15 AM 29.1 °F - 27.9 °F 95% 30.16 in 7.0 mi Calm Calm - N/A   Overcast
7:35 AM 28.9 °F - 27.9 °F 96% 30.15 in 4.0 mi Calm Calm - N/A   Overcast
7:55 AM 28.9 °F - 28.0 °F 96% 30.16 in 10.0 mi Calm Calm - N/A   Overcast
8:15 AM 28.9 °F - 27.9 °F 96% 30.16 in 5.0 mi Calm Calm - N/A   Overcast
8:35 AM 29.1 °F - 27.7 °F 94% 30.16 in 4.0 mi Calm Calm - N/A   Overcast
8:55 AM 28.4 °F 24.6 °F 25.2 °F 88% 30.17 in 5.0 mi South 3.5 mph - N/A   Overcast
9:15 AM 28.4 °F - 26.8 °F 94% 30.16 in 1.5 mi Calm Calm - N/A Snow Light Snow
9:35 AM 28.4 °F 24.6 °F 27.5 °F 96% 30.17 in 1.2 mi SSW 3.5 mph - N/A Snow Light Snow
9:55 AM 28.8 °F 21.7 °F 28.0 °F 97% 30.17 in 1.5 mi SSW 6.9 mph - N/A Snow Light Snow
10:15 AM 28.4 °F 22.2 °F 27.5 °F 96% 30.16 in 1.8 mi SW 5.8 mph - N/A Snow Light Snow
10:35 AM 28.4 °F 24.6 °F 27.3 °F 96% 30.15 in 1.5 mi WSW 3.5 mph - N/A Snow Light Snow
10:55 AM 28.4 °F - 27.0 °F 94% 30.14 in 3.0 mi Calm Calm - N/A Snow Light Snow
11:15 AM 28.9 °F 25.2 °F 27.1 °F 93% 30.14 in 5.0 mi SSW 3.5 mph - N/A Snow Light Snow
11:35 AM 29.1 °F 24.1 °F 27.3 °F 93% 30.13 in 4.0 mi SSW 4.6 mph - N/A Snow Light Snow
11:55 AM 28.8 °F 23.7 °F 27.3 °F 94% 30.12 in 3.0 mi South 4.6 mph - N/A Snow Light Snow
12:15 PM 28.8 °F 25.0 °F 27.3 °F 94% 30.12 in 3.0 mi SW 3.5 mph - N/A Snow Light Snow
12:35 PM 28.6 °F - 27.1 °F 94% 30.10 in 1.0 mi Calm Calm - N/A Snow Light Snow
12:55 PM 28.4 °F 21.2 °F 27.0 °F 94% 30.10 in 1.2 mi South 6.9 mph - N/A Snow Light Snow
1:15 PM 28.0 °F 24.2 °F 26.6 °F 94% 30.09 in 1.8 mi SSW 3.5 mph - N/A Snow Light Snow
1:35 PM 27.9 °F 22.6 °F 26.6 °F 95% 30.09 in 1.0 mi SSW 4.6 mph - N/A Snow Light Snow
1:55 PM 27.5 °F 21.1 °F 26.2 °F 95% 30.08 in 0.8 mi SSW 5.8 mph - N/A Snow Light Snow
2:15 PM 27.5 °F 21.1 °F 25.9 °F 94% 30.07 in 2.0 mi South 5.8 mph - N/A Snow Light Snow
2:35 PM 27.5 °F 21.1 °F 26.4 °F 96% 30.07 in 1.2 mi South 5.8 mph - N/A Snow Light Snow
2:55 PM 27.7 °F - 26.6 °F 96% 30.07 in 0.8 mi Calm Calm - N/A Snow Light Snow
3:15 PM 27.9 °F 24.0 °F 26.8 °F 96% 30.07 in 1.2 mi SSW 3.5 mph - N/A Snow Light Snow
3:35 PM 28.0 °F 24.2 °F 27.0 °F 96% 30.07 in 2.5 mi SW 3.5 mph - N/A Snow Light Snow
3:55 PM 27.9 °F 22.6 °F 26.4 °F 94% 30.07 in 4.0 mi SW 4.6 mph - N/A Snow Light Snow
4:15 PM 27.3 °F 20.9 °F 25.7 °F 94% 30.07 in 4.0 mi WSW 5.8 mph - N/A Snow Light Snow
4:35 PM 26.4 °F 19.8 °F 24.8 °F 94% 30.07 in 4.0 mi West 5.8 mph - N/A Snow Light Snow
4:55 PM 26.4 °F 19.8 °F 25.3 °F 96% 30.05 in 3.0 mi WSW 5.8 mph - N/A Snow Light Snow
5:15 PM 25.7 °F 19.0 °F 24.8 °F 96% 30.05 in 7.0 mi West 5.8 mph - N/A Snow Light Snow
5:35 PM 25.3 °F 19.7 °F 24.6 °F 97% 30.05 in 10.0 mi WSW 4.6 mph - N/A Snow Light Snow
5:55 PM 25.3 °F 18.5 °F 24.6 °F 97% 30.05 in 10.0 mi WSW 5.8 mph - N/A Snow Light Snow
6:15 PM 24.8 °F 20.5 °F 24.3 °F 98% 30.05 in 4.0 mi WSW 3.5 mph - N/A Snow Light Snow
6:35 PM 24.8 °F 19.1 °F 24.3 °F 98% 30.05 in 3.0 mi WSW 4.6 mph - N/A Snow Light Snow
6:55 PM 24.8 °F 20.5 °F 23.9 °F 96% 30.05 in 3.0 mi WSW 3.5 mph - N/A Snow Light Snow
7:15 PM 24.8 °F 20.5 °F 23.9 °F 96% 30.04 in 3.0 mi WSW 3.5 mph - N/A Snow Light Snow
7:35 PM 24.6 °F - 23.9 °F 97% 30.04 in 4.0 mi Calm Calm - N/A Snow Light Snow
7:55 PM 24.4 °F 20.1 °F 23.9 °F 98% 30.04 in 2.5 mi SW 3.5 mph - N/A Snow Light Snow
8:15 PM 24.1 °F - 23.5 °F 98% 30.04 in 3.0 mi Calm Calm - N/A Snow Light Snow
8:35 PM 23.9 °F 19.5 °F 23.0 °F 96% 30.04 in 1.8 mi SW 3.5 mph - N/A Snow Light Snow
8:55 PM 23.9 °F - 23.0 °F 96% 30.04 in 2.0 mi Calm Calm - N/A Snow Light Snow
9:15 PM 23.9 °F - 23.0 °F 96% 30.04 in 1.5 mi Calm Calm - N/A Snow Light Snow
9:35 PM 23.9 °F - 23.0 °F 96% 30.04 in 1.8 mi Calm Calm - N/A Snow Light Snow
9:55 PM 23.9 °F - 23.0 °F 96% 30.04 in 2.5 mi Calm Calm - N/A Snow Light Snow
10:15 PM 23.9 °F - 23.0 °F 96% 30.03 in 2.0 mi Calm Calm - N/A Snow Light Snow
10:35 PM 23.7 °F - 23.0 °F 97% 30.03 in 2.5 mi Calm Calm - N/A Snow Light Snow
10:55 PM 23.7 °F - 22.8 °F 96% 30.04 in 3.0 mi Calm Calm - N/A Snow Light Snow
11:15 PM 23.7 °F - 22.8 °F 96% 30.03 in 4.0 mi Calm Calm - N/A Snow Light Snow
11:35 PM 23.4 °F - 22.6 °F 97% 30.03 in 4.0 mi Calm Calm - N/A Snow Light Snow
11:55 PM 23.0 °F - 22.5 °F 98% 30.03 in 4.0 mi Calm Calm - N/A Snow Light Snow